Weather in Kazanskoe

Russia / Tyumen Oblast     55°38′26″N   69°13′18″E
temp.,
°C
wind,
m/s
gust,
m/s
humid.,
%
clouds,
%
prec.,
mm/h
press.,
hPa
HPBL,
m
4 august, wed
wed423:00+16nw338936 0.4 101042
02:00+15nw33924 0.0 101143
05:00+14nnw379334 0.0 1012137
08:00+19n46742 0.0 1013398
11:00+23n455279 0.0 10131153
14:00+25n3441100 0.0 10121699
17:00+26nnw344151 0.0 10122017
20:00+21nne345664 0.0 101281
5 august, thu
thu523:00+19s0162100 0.0 101311
02:00+17w2271100 0.0 101311
05:00+17wnw1170100 0.0 101311
08:00+22nw125497 0.0 1012305
11:00+23wnw4353100 0.1 1013743
14:00+26wnw3347100 0.1 10121103
17:00+23nnw115755 0.1 101115
20:00+22ene226235 0.0 101025
6 august, fri
fri623:00+19se2270100 0.0 101020
02:00+17se4876100 0.0 1009143
05:00+16nnw3592100 1.4 101198
08:00+18ssw5119021 2.4 1008357
11:00+26ssw675546 2.9 10081181
14:00+30wsw3442100 0.0 10071896
17:00+30w454039 0.0 10072105
20:00+23nnw49714 0.0 1007278
7 august, sat
sat723:00+18n3893100 0.4 1008159
02:00+17w2396100 0.7 100855
05:00+17nw3798100 2.1 1008252
08:00+18nnw3697100 0.9 1009465
11:00+17nw5997100 3.3 1010500
14:00+19nnw468278 2.7 1011607
17:00+21nw577539 3.3 1011744
20:00+18nnw49870 0.2 1012292
8 august, sun
sun823:00+15nnw239264 0.3 101249
02:00+14nw3592100 0.0 101293
05:00+13nw3594100 0.0 101386
08:00+17nw476619 0.0 1014438
11:00+21nw56461 0.0 10131464
14:00+23wnw56380 0.0 10132163
17:00+24wnw463723 0.0 10122254
20:00+20w1150100 0.0 101232